When you browse on this site, cookies collect data to enhance your experience and personalize the content and advertising you see.
Visit our Privacy Policy to learn more. By continuing to use the site, you agree to this use of cookies and data.
  • In Austria
  • List of Countries
  • For 7 days
  • Water Temperature
  • Satellite Maps
  • Weather Map
  • News
  • Weather Widgets
  • user-avatar
    Login

    Hourly Weather Chipata

    Today, 19 December, Wednesday

    Time Temperature Precipitation Wind Pressure Humidity
    00:00 +23°C° 0.6 mm 1 mps 677 mmHg 81%
    01:00 +23°C° 0.6 mm 1 mps 676 mmHg 85%
    02:00 +22°C° 0 mm 1 mps 677 mmHg 87%
    03:00 +22°C° 0.7 mm 1 mps 677 mmHg 88%
    04:00 +22°C° 0.7 mm 1 mps 677 mmHg 90%
    05:00 +22°C° 0.7 mm 1 mps 677 mmHg 91%
    06:00 +23°C° 0.2 mm 1 mps 677 mmHg 86%
    07:00 +24°C° 0.2 mm 1 mps 678 mmHg 82%
    08:00 +25°C° 0.2 mm 1 mps 678 mmHg 78%
    09:00 +26°C° 0.6 mm 2 mps 678 mmHg 72%
    10:00 +28°C° 0.6 mm 2 mps 678 mmHg 67%
    11:00 +29°C° 0.6 mm 2 mps 678 mmHg 62%
    12:00 +29°C° 0.9 mm 2 mps 677 mmHg 61%
    13:00 +30°C° 0.9 mm 2 mps 677 mmHg 60%
    14:00 +30°C° 0.9 mm 2 mps 676 mmHg 60%
    15:00 +29°C° 0.5 mm 2 mps 676 mmHg 63%
    16:00 +29°C° 0.5 mm 2 mps 676 mmHg 66%
    17:00 +28°C° 0.5 mm 1 mps 675 mmHg 69%
    18:00 +27°C° 0.4 mm 1 mps 676 mmHg 74%
    19:00 +26°C° 0.4 mm 1 mps 676 mmHg 79%
    20:00 +24°C° 0.4 mm 1 mps 676 mmHg 84%
    21:00 +24°C° 0.2 mm 1 mps 676 mmHg 85%
    22:00 +24°C° 0.2 mm 1 mps 676 mmHg 86%
    23:00 +23°C° 0.2 mm 1 mps 676 mmHg 87%

    Tomorrow, 20 December, Thursday

    Time Temperature Precipitation Wind Pressure Humidity
    00:00 +23°C° 0.7 mm 1 mps 676 mmHg 88%
    01:00 +23°C° 0.7 mm 1 mps 676 mmHg 88%
    02:00 +23°C° 0.7 mm 1 mps 676 mmHg 89%
    03:00 +22°C° 0.6 mm 1 mps 676 mmHg 88%
    04:00 +22°C° 0.6 mm 1 mps 676 mmHg 88%
    05:00 +22°C° 0.6 mm 1 mps 676 mmHg 88%
    06:00 +23°C° 0.2 mm 1 mps 676 mmHg 86%
    07:00 +24°C° 0.2 mm 1 mps 677 mmHg 84%
    08:00 +24°C° 0.2 mm 1 mps 677 mmHg 81%
    09:00 +26°C° 0 mm 1 mps 677 mmHg 73%
    10:00 +28°C° 0 mm 1 mps 677 mmHg 66%
    11:00 +30°C° 0 mm 1 mps 677 mmHg 58%
    12:00 +30°C° 0.1 mm 1 mps 677 mmHg 55%
    13:00 +31°C° 0.1 mm 1 mps 677 mmHg 52%
    14:00 +32°C° 0.1 mm 1 mps 676 mmHg 50%
    15:00 +31°C° 0.9 mm 1 mps 676 mmHg 57%
    16:00 +29°C° 0.9 mm 1 mps 675 mmHg 65%
    17:00 +28°C° 0.9 mm 1 mps 675 mmHg 72%
    18:00 +26°C° 1.7 mm 1 mps 675 mmHg 77%
    19:00 +25°C° 1.7 mm 1 mps 676 mmHg 82%
    20:00 +24°C° 1.7 mm 1 mps 676 mmHg 87%
    21:00 +24°C° 1 mm 1 mps 676 mmHg 87%
    22:00 +23°C° 1 mm 1 mps 677 mmHg 88%
    23:00 +23°C° 1 mm 1 mps 677 mmHg 89%

    Day after tomorrow, 21 December, Friday

    Time Temperature Precipitation Wind Pressure Humidity
    00:00 +23°C° 0.8 mm 1 mps 676 mmHg 89%
    01:00 +23°C° 0.8 mm 1 mps 676 mmHg 90%
    02:00 +22°C° 0.8 mm 1 mps 676 mmHg 91%
    03:00 +22°C° 0.6 mm 1 mps 676 mmHg 92%
    04:00 +22°C° 0.6 mm 1 mps 676 mmHg 93%
    05:00 +22°C° 0.6 mm 1 mps 676 mmHg 94%
    06:00 +23°C° 0.7 mm 1 mps 676 mmHg 92%
    07:00 +23°C° 0.7 mm 1 mps 677 mmHg 90%
    08:00 +24°C° 0.7 mm 1 mps 677 mmHg 88%
    09:00 +25°C° 1.2 mm 1 mps 677 mmHg 85%
    10:00 +26°C° 1.2 mm 1 mps 677 mmHg 82%
    11:00 +26°C° 1.2 mm 2 mps 677 mmHg 79%
    12:00 +26°C° 1.6 mm 1 mps 676 mmHg 80%
    13:00 +26°C° 1.6 mm 1 mps 676 mmHg 81%
    14:00 +26°C° 1.6 mm 1 mps 675 mmHg 82%
    15:00 +25°C° 2.1 mm 1 mps 675 mmHg 85%
    16:00 +24°C° 2.1 mm 1 mps 675 mmHg 89%
    17:00 +23°C° 2.1 mm 1 mps 674 mmHg 93%
    18:00 +23°C° 1.5 mm 1 mps 675 mmHg 93%
    19:00 +23°C° 1.5 mm 1 mps 676 mmHg 94%
    20:00 +22°C° 1.5 mm 1 mps 676 mmHg 94%
    21:00 +22°C° 0.8 mm 1 mps 676 mmHg 94%
    22:00 +22°C° 0.8 mm 1 mps 676 mmHg 94%
    23:00 +22°C° 0.8 mm 1 mps 677 mmHg 95%

    22 December, Saturday

    Time Temperature Precipitation Wind Pressure Humidity
    00:00 +22°C° 0.8 mm 1 mps 676 mmHg 95%
    01:00 +21°C° 0.8 mm 1 mps 675 mmHg 96%
    02:00 +21°C° 0.8 mm 1 mps 675 mmHg 97%
    03:00 +21°C° 0.3 mm 1 mps 675 mmHg 97%
    04:00 +21°C° 0.3 mm 1 mps 675 mmHg 97%
    05:00 +21°C° 0.3 mm 1 mps 675 mmHg 97%
    06:00 +22°C° 0.1 mm 1 mps 676 mmHg 94%
    07:00 +23°C° 0.1 mm 1 mps 677 mmHg 91%
    08:00 +24°C° 0.1 mm 1 mps 677 mmHg 88%
    09:00 +25°C° 0.8 mm 1 mps 677 mmHg 85%
    10:00 +26°C° 0.8 mm 1 mps 677 mmHg 82%
    11:00 +27°C° 0.8 mm 1 mps 677 mmHg 78%
    12:00 +26°C° 1.6 mm 1 mps 676 mmHg 81%
    13:00 +26°C° 1.6 mm 1 mps 676 mmHg 83%
    14:00 +25°C° 1.6 mm 2 mps 675 mmHg 86%
    15:00 +25°C° 1.4 mm 2 mps 675 mmHg 87%
    16:00 +24°C° 1.4 mm 1 mps 675 mmHg 88%
    17:00 +24°C° 1.4 mm 1 mps 675 mmHg 90%
    18:00 +23°C° 1.2 mm 1 mps 675 mmHg 91%
    19:00 +23°C° 1.2 mm 1 mps 675 mmHg 93%
    20:00 +22°C° 1.2 mm 1 mps 676 mmHg 94%
    21:00 +22°C° 1.5 mm 1 mps 676 mmHg 95%
    22:00 +22°C° 1.5 mm 1 mps 676 mmHg 95%
    23:00 +22°C° 1.5 mm 1 mps 676 mmHg 96%

    23 December, Sunday

    Time Temperature Precipitation Wind Pressure Humidity
    00:00 +21°C° 1.7 mm 1 mps 676 mmHg 96%
    01:00 +21°C° 1.7 mm 1 mps 675 mmHg 97%
    02:00 +21°C° 1.7 mm 1 mps 675 mmHg 97%
    03:00 +21°C° 0.6 mm 1 mps 675 mmHg 97%
    04:00 +21°C° 0.6 mm 1 mps 675 mmHg 97%
    05:00 +21°C° 0.6 mm 1 mps 675 mmHg 97%
    06:00 +22°C° 0.1 mm 1 mps 676 mmHg 95%
    07:00 +22°C° 0.1 mm 1 mps 677 mmHg 92%
    08:00 +23°C° 0.1 mm 1 mps 677 mmHg 90%
    09:00 +24°C° 0.3 mm 1 mps 677 mmHg 87%
    10:00 +25°C° 0.3 mm 1 mps 677 mmHg 84%
    11:00 +25°C° 0.3 mm 2 mps 677 mmHg 81%
    12:00 +26°C° 0.7 mm 1 mps 676 mmHg 80%
    13:00 +26°C° 0.7 mm 1 mps 676 mmHg 80%
    14:00 +26°C° 0.7 mm 1 mps 675 mmHg 79%
    15:00 +25°C° 1.1 mm 1 mps 675 mmHg 82%
    16:00 +25°C° 1.1 mm 1 mps 675 mmHg 85%
    17:00 +24°C° 1.1 mm 1 mps 675 mmHg 88%
    18:00 +24°C° 0.4 mm 1 mps 675 mmHg 89%
    19:00 +23°C° 0.4 mm 1 mps 675 mmHg 91%
    20:00 +22°C° 0.4 mm 1 mps 676 mmHg 92%
    21:00 +22°C° 0.1 mm 1 mps 676 mmHg 92%
    22:00 +20°C° 0.1 mm 0 mps 676 mmHg 92%
    23:00 +20°C° 0.1 mm 0 mps 676 mmHg 92%

    24 December, Monday

    Time Temperature Precipitation Wind Pressure Humidity
    00:00 +19°C° 0 mm 0 mps 676 mmHg 92%
    01:00 +19°C° 0 mm 0 mps 675 mmHg 93%
    02:00 +19°C° 0 mm 0 mps 675 mmHg 93%
    03:00 +19°C° 0 mm 0 mps 675 mmHg 93%
    04:00 +18°C° 0 mm 0 mps 675 mmHg 93%
    05:00 +18°C° 0 mm 0 mps 675 mmHg 93%
    06:00 +20°C° 0 mm 0 mps 676 mmHg 88%
    07:00 +22°C° 0 mm 0 mps 677 mmHg 83%
    08:00 +23°C° 0 mm 0 mps 678 mmHg 77%
    09:00 +27°C° 0.1 mm 1 mps 678 mmHg 70%
    10:00 +29°C° 0.1 mm 1 mps 678 mmHg 63%
    11:00 +31°C° 0.1 mm 1 mps 678 mmHg 57%
    12:00 +31°C° 0.6 mm 1 mps 677 mmHg 59%
    13:00 +30°C° 0.6 mm 1 mps 676 mmHg 60%
    14:00 +30°C° 0.6 mm 2 mps 675 mmHg 62%
    15:00 +29°C° 1.2 mm 2 mps 675 mmHg 67%
    16:00 +28°C° 1.2 mm 2 mps 675 mmHg 72%
    17:00 +28°C° 1.2 mm 2 mps 674 mmHg 77%
    18:00 +26°C° 0.1 mm 2 mps 675 mmHg 80%
    19:00 +24°C° 0.1 mm 1 mps 675 mmHg 82%
    20:00 +23°C° 0.1 mm 1 mps 675 mmHg 85%
    21:00 +22°C° 0 mm 1 mps 675 mmHg 85%
    22:00 +22°C° 0 mm 1 mps 675 mmHg 84%
    23:00 +22°C° 0 mm 1 mps 675 mmHg 84%
    Show more